| time (UTC) | temp C | wind direction | speed KPH | gust KPH | rain 1hr cm | rain 24hr cm | rain mn cm | humidity % | barometer mb |
| 20260506170048 | 20 | 306 | 1.6 | 1.6 | 0.00 | 0.00 | 0.00 | 70 | 1021.9 |
| 20260506165546 | 19 | 210 | 0.0 | 1.6 | 0.00 | 0.00 | 0.00 | 69 | 1021.8 |
| 20260506165042 | 18 | 294 | 1.6 | 1.6 | 0.00 | 0.00 | 0.00 | 71 | 1021.9 |
| 20260506164539 | 18 | 173 | 1.6 | 1.6 | 0.00 | 0.00 | 0.00 | 72 | 1021.7 |
| 20260506164036 | 17 | 237 | 3.2 | 4.8 | 0.00 | 0.00 | 0.00 | 74 | 1022.0 |
| 20260506163532 | 18 | 245 | 1.6 | 3.2 | 0.00 | 0.00 | 0.00 | 72 | 1021.8 |
| 20260506163028 | 17 | 277 | 4.8 | 6.4 | 0.00 | 0.00 | 0.00 | 74 | 1021.8 |
| 20260506162524 | 17 | 239 | 1.6 | 1.6 | 0.00 | 0.00 | 0.00 | 75 | 1021.9 |
| 20260506162021 | 17 | 266 | 4.8 | 6.4 | 0.00 | 0.00 | 0.00 | 75 | 1021.9 |
| 20260506161518 | 17 | 185 | 3.2 | 3.2 | 0.00 | 0.00 | 0.00 | 76 | 1021.9 |
| 20260506161010 | 16 | 226 | 4.8 | 4.8 | 0.00 | 0.00 | 0.00 | 77 | 1021.9 |
| 20260506160508 | 16 | 281 | 0.0 | 0.0 | 0.00 | 0.00 | 0.00 | 77 | 1021.8 |
| 20260506160005 | 16 | 265 | 3.2 | 3.2 | 0.00 | 0.00 | 0.00 | 78 | 1021.8 |
| 20260506155502 | 16 | 265 | 3.2 | 6.4 | 0.00 | 0.00 | 0.00 | 78 | 1021.9 |
| 20260506153634 | 15 | 293 | 3.2 | 4.8 | 0.00 | 0.00 | 0.00 | 81 | 1021.8 |
| 20260506153132 | 15 | 248 | 1.6 | 3.2 | 0.00 | 0.00 | 0.00 | 81 | 1021.9 |
| 20260506152628 | 15 | 258 | 3.2 | 4.8 | 0.00 | 0.00 | 0.00 | 82 | 1021.9 |
| 20260506152126 | 15 | 283 | 1.6 | 1.6 | 0.00 | 0.00 | 0.00 | 83 | 1021.7 |
| 20260506151625 | 15 | 232 | 3.2 | 3.2 | 0.00 | 0.00 | 0.00 | 83 | 1021.6 |
| 20260506151121 | 14 | 285 | 3.2 | 4.8 | 0.00 | 0.00 | 0.00 | 85 | 1021.6 |
| 20260506150618 | 14 | 260 | 3.2 | 4.8 | 0.00 | 0.00 | 0.00 | 85 | 1021.6 |
| 20260506150115 | 14 | 263 | 3.2 | 4.8 | 0.00 | 0.00 | 0.00 | 85 | 1021.8 |
| 20260506145612 | 14 | 273 | 3.2 | 3.2 | 0.00 | 0.00 | 0.00 | 86 | 1021.6 |
| 20260506145109 | 13 | 283 | 4.8 | 4.8 | 0.00 | 0.00 | 0.00 | 86 | 1021.7 |
| 20260506144606 | 13 | 230 | 3.2 | 3.2 | 0.00 | 0.00 | 0.00 | 87 | 1021.8 |
| 20260506144102 | 13 | 294 | 1.6 | 1.6 | 0.00 | 0.00 | 0.00 | 86 | 1021.7 |
| 20260506143601 | 13 | 239 | 3.2 | 3.2 | 0.00 | 0.00 | 0.00 | 87 | 1021.5 |
| 20260506143058 | 13 | 275 | 3.2 | 4.8 | 0.00 | 0.00 | 0.00 | 87 | 1021.5 |
| 20260506142556 | 13 | 268 | 4.8 | 6.4 | 0.00 | 0.00 | 0.00 | 87 | 1021.6 |
| 20260506142054 | 13 | 297 | 3.2 | 3.2 | 0.00 | 0.00 | 0.00 | 87 | 1021.6 |
| 20260506141551 | 13 | 357 | 0.0 | 1.6 | 0.00 | 0.00 | 0.00 | 88 | 1021.5 |
| 20260506141050 | 13 | 350 | 1.6 | 1.6 | 0.00 | 0.00 | 0.00 | 88 | 1021.4 |
| 20260506140547 | 13 | 292 | 1.6 | 3.2 | 0.00 | 0.00 | 0.00 | 88 | 1021.2 |
| 20260506140044 | 13 | 348 | 0.0 | 0.0 | 0.00 | 0.00 | 0.00 | 89 | 1021.1 |
| 20260506135541 | 13 | 348 | 0.0 | 0.0 | 0.00 | 0.00 | 0.00 | 89 | 1021.1 |
| 20260506135037 | 13 | 353 | 0.0 | 0.0 | 0.00 | 0.00 | 0.00 | 89 | 1021.1 |
| 20260506134534 | 13 | 23 | 0.0 | 0.0 | 0.00 | 0.00 | 0.00 | 89 | 1021.1 |
| 20260506134029 | 13 | 349 | 0.0 | 1.6 | 0.00 | 0.00 | 0.00 | 89 | 1020.9 |
| 20260506133527 | 13 | 273 | 1.6 | 1.6 | 0.00 | 0.00 | 0.00 | 89 | 1021.0 |
| 20260506133024 | 13 | 346 | 0.0 | 0.0 | 0.00 | 0.00 | 0.00 | 89 | 1021.0 |
| 20260506132521 | 13 | 320 | 0.0 | 0.0 | 0.00 | 0.00 | 0.00 | 90 | 1020.9 |
| 20260506132018 | 13 | 329 | 0.0 | 0.0 | 0.00 | 0.00 | 0.00 | 90 | 1021.1 |
| 20260506131515 | 13 | 2 | 0.0 | 0.0 | 0.00 | 0.00 | 0.00 | 90 | 1021.0 |
| 20260506131012 | 13 | 353 | 0.0 | 0.0 | 0.00 | 0.00 | 0.00 | 90 | 1020.9 |
| 20260506130508 | 13 | 347 | 0.0 | 0.0 | 0.00 | 0.00 | 0.00 | 90 | 1020.8 |
| 20260506130006 | 13 | 323 | 1.6 | 1.6 | 0.00 | 0.00 | 0.00 | 90 | 1020.9 |
| 20260506125504 | 13 | 332 | 1.6 | 1.6 | 0.00 | 0.00 | 0.00 | 90 | 1020.9 |
| 20260506125001 | 13 | 273 | 3.2 | 4.8 | 0.00 | 0.00 | 0.00 | 90 | 1020.8 |
| 20260506124459 | 13 | 322 | 3.2 | 3.2 | 0.00 | 0.00 | 0.00 | 90 | 1020.7 |
| 20260506123957 | 13 | 316 | 1.6 | 1.6 | 0.00 | 0.00 | 0.00 | 90 | 1020.8 |
| 20260506123455 | 12 | 309 | 1.6 | 3.2 | 0.00 | 0.00 | 0.00 | 90 | 1020.7 |
| 20260506122952 | 13 | 269 | 4.8 | 4.8 | 0.00 | 0.00 | 0.00 | 90 | 1020.8 |
| 20260506122449 | 13 | 343 | 1.6 | 1.6 | 0.00 | 0.00 | 0.00 | 90 | 1020.7 |
| 20260506121947 | 13 | 341 | 0.0 | 1.6 | 0.00 | 0.00 | 0.00 | 90 | 1020.7 |
| 20260506121444 | 13 | 350 | 0.0 | 0.0 | 0.00 | 0.00 | 0.00 | 90 | 1020.7 |
| 20260506120940 | 13 | 293 | 3.2 | 3.2 | 0.00 | 0.00 | 0.00 | 90 | 1020.5 |
| 20260506120438 | 12 | 356 | 1.6 | 1.6 | 0.00 | 0.00 | 0.00 | 90 | 1020.6 |
| 20260506115935 | 12 | 352 | 0.0 | 0.0 | 0.00 | 0.00 | 0.00 | 90 | 1020.7 |
| 20260506115433 | 12 | 284 | 1.6 | 3.2 | 0.00 | 0.00 | 0.00 | 90 | 1020.7 |
| 20260506114931 | 12 | 33 | 1.6 | 3.2 | 0.00 | 0.00 | 0.00 | 90 | 1020.5 |
| 20260506114429 | 13 | 318 | 3.2 | 3.2 | 0.00 | 0.00 | 0.00 | 90 | 1020.5 |
| 20260506113927 | 13 | 349 | 0.0 | 0.0 | 0.00 | 0.00 | 0.00 | 90 | 1020.6 |
| 20260506113424 | 13 | 339 | 0.0 | 1.6 | 0.00 | 0.00 | 0.00 | 90 | 1020.4 |
| 20260506112915 | 12 | 308 | 0.0 | 1.6 | 0.00 | 0.00 | 0.00 | 90 | 1020.4 |
| 20260506112413 | 13 | 342 | 1.6 | 1.6 | 0.00 | 0.00 | 0.00 | 90 | 1020.6 |
| 20260506111910 | 13 | 311 | 1.6 | 1.6 | 0.00 | 0.00 | 0.00 | 90 | 1020.4 |
| 20260506111408 | 13 | 21 | 1.6 | 1.6 | 0.00 | 0.00 | 0.00 | 90 | 1020.2 |
| 20260506110905 | 13 | 3 | 0.0 | 0.0 | 0.00 | 0.00 | 0.00 | 90 | 1020.3 |
| 20260506110402 | 13 | 351 | 0.0 | 0.0 | 0.00 | 0.00 | 0.00 | 90 | 1020.4 |
| 20260506105859 | 13 | 6 | 0.0 | 0.0 | 0.00 | 0.00 | 0.00 | 90 | 1020.3 |
| 20260506105355 | 13 | 13 | 0.0 | 0.0 | 0.00 | 0.00 | 0.00 | 90 | 1020.2 |
| 20260506104853 | 13 | 357 | 0.0 | 0.0 | 0.00 | 0.00 | 0.00 | 90 | 1020.1 |
| 20260506104350 | 13 | 13 | 0.0 | 0.0 | 0.00 | 0.00 | 0.00 | 89 | 1020.2 |
| 20260506103848 | 13 | 250 | 1.6 | 1.6 | 0.00 | 0.00 | 0.00 | 89 | 1020.0 |
| 20260506103345 | 13 | 7 | 1.6 | 1.6 | 0.00 | 0.00 | 0.00 | 89 | 1020.1 |
| 20260506102842 | 13 | 294 | 4.8 | 4.8 | 0.00 | 0.00 | 0.00 | 90 | 1020.1 |
| 20260506102340 | 12 | 308 | 3.2 | 3.2 | 0.00 | 0.00 | 0.00 | 90 | 1019.9 |
| 20260506101837 | 13 | 337 | 1.6 | 1.6 | 0.00 | 0.00 | 0.00 | 90 | 1020.1 |
| 20260506101333 | 13 | 359 | 0.0 | 0.0 | 0.00 | 0.00 | 0.00 | 90 | 1019.9 |
| 20260506100831 | 13 | 17 | 0.0 | 0.0 | 0.00 | 0.00 | 0.00 | 90 | 1020.0 |
| 20260506100329 | 13 | 21 | 0.0 | 1.6 | 0.00 | 0.00 | 0.00 | 90 | 1019.9 |
| 20260506095827 | 13 | 8 | 1.6 | 1.6 | 0.00 | 0.00 | 0.00 | 90 | 1019.9 |
| 20260506095324 | 13 | 353 | 0.0 | 0.0 | 0.00 | 0.00 | 0.00 | 90 | 1020.1 |
| 20260506094821 | 13 | 15 | 0.0 | 0.0 | 0.00 | 0.00 | 0.00 | 90 | 1020.0 |
| 20260506094320 | 13 | 16 | 0.0 | 0.0 | 0.00 | 0.00 | 0.00 | 90 | 1020.0 |
| 20260506093818 | 13 | 22 | 0.0 | 0.0 | 0.00 | 0.00 | 0.00 | 90 | 1020.1 |
| 20260506093314 | 12 | 302 | 1.6 | 3.2 | 0.00 | 0.00 | 0.00 | 90 | 1019.9 |
| 20260506092812 | 12 | 316 | 0.0 | 0.0 | 0.00 | 0.00 | 0.00 | 90 | 1020.0 |
| 20260506092310 | 12 | 20 | 0.0 | 0.0 | 0.00 | 0.00 | 0.00 | 90 | 1020.0 |
| 20260506091807 | 12 | 12 | 1.6 | 1.6 | 0.00 | 0.00 | 0.00 | 90 | 1020.3 |
| 20260506091304 | 12 | 19 | 3.2 | 3.2 | 0.00 | 0.00 | 0.00 | 90 | 1020.1 |
| 20260506090802 | 12 | 11 | 0.0 | 0.0 | 0.00 | 0.00 | 0.00 | 90 | 1020.1 |
| 20260506090259 | 12 | 31 | 0.0 | 1.6 | 0.00 | 0.00 | 0.00 | 90 | 1020.1 |
| 20260506085755 | 12 | 348 | 1.6 | 1.6 | 0.00 | 0.00 | 0.00 | 90 | 1020.2 |
| 20260506085252 | 12 | 19 | 0.0 | 0.0 | 0.00 | 0.00 | 0.00 | 90 | 1020.1 |
| 20260506084748 | 12 | 317 | 1.6 | 3.2 | 0.00 | 0.00 | 0.00 | 90 | 1020.2 |
| 20260506084245 | 12 | 354 | 0.0 | 0.0 | 0.00 | 0.00 | 0.00 | 90 | 1020.0 |
| 20260506083742 | 12 | 15 | 3.2 | 4.8 | 0.00 | 0.00 | 0.00 | 89 | 1020.2 |
| 20260506083240 | 12 | 5 | 0.0 | 0.0 | 0.00 | 0.00 | 0.00 | 89 | 1020.1 |
| 20260506082737 | 12 | 306 | 3.2 | 3.2 | 0.00 | 0.00 | 0.00 | 89 | 1020.1 |
| 20260506082232 | 13 | 294 | 3.2 | 3.2 | 0.00 | 0.00 | 0.00 | 89 | 1020.1 |
| 20260506081730 | 13 | 18 | 1.6 | 1.6 | 0.00 | 0.00 | 0.00 | 89 | 1020.3 |
| 20260506081227 | 13 | 19 | 0.0 | 0.0 | 0.00 | 0.00 | 0.00 | 89 | 1020.2 |
| 20260506080726 | 13 | 351 | 0.0 | 0.0 | 0.00 | 0.00 | 0.00 | 89 | 1020.1 |
| 20260506080221 | 13 | 9 | 0.0 | 1.6 | 0.00 | 0.00 | 0.00 | 89 | 1020.1 |
| 20260506073206 | 13 | 27 | 0.0 | 0.0 | 0.00 | 0.00 | 0.00 | 89 | 1019.7 |
| 20260506072702 | 13 | 314 | 3.2 | 4.8 | 0.00 | 0.00 | 0.00 | 89 | 1019.7 |
| 20260506072200 | 13 | 14 | 0.0 | 0.0 | 0.00 | 0.00 | 0.00 | 89 | 1019.7 |
| 20260506071657 | 13 | 14 | 1.6 | 3.2 | 0.00 | 0.00 | 0.00 | 89 | 1019.6 |
| 20260506071155 | 13 | 28 | 0.0 | 0.0 | 0.00 | 0.00 | 0.00 | 89 | 1019.9 |
| 20260506070652 | 13 | 24 | 1.6 | 1.6 | 0.00 | 0.00 | 0.00 | 89 | 1019.7 |
| 20260506070148 | 13 | 354 | 0.0 | 0.0 | 0.00 | 0.00 | 0.00 | 89 | 1019.7 |
| 20260506062126 | 13 | 338 | 1.6 | 1.6 | 0.00 | 0.00 | 0.00 | 90 | 1019.7 |
| 20260506061621 | 12 | 4 | 0.0 | 0.0 | 0.00 | 0.00 | 0.00 | 90 | 1019.4 |
| 20260506061120 | 13 | 11 | 0.0 | 0.0 | 0.00 | 0.00 | 0.00 | 89 | 1019.4 |
| 20260506060618 | 13 | 13 | 0.0 | 0.0 | 0.00 | 0.00 | 0.00 | 89 | 1019.5 |
| 20260506060114 | 13 | 25 | 0.0 | 0.0 | 0.00 | 0.00 | 0.00 | 89 | 1019.3 |
| 20260506051046 | 13 | 341 | 1.6 | 1.6 | 0.00 | 0.00 | 0.00 | 86 | 1019.3 |
| 20260506050544 | 13 | 292 | 3.2 | 3.2 | 0.00 | 0.00 | 0.00 | 87 | 1019.1 |
| 20260506045035 | 13 | 330 | 3.2 | 6.4 | 0.00 | 0.00 | 0.00 | 86 | 1018.9 |
| 20260506044533 | 13 | 351 | 0.0 | 0.0 | 0.00 | 0.00 | 0.00 | 87 | 1018.8 |
| 20260506044029 | 13 | 16 | 0.0 | 0.0 | 0.00 | 0.00 | 0.00 | 87 | 1018.6 |
| 20260506043526 | 13 | 1 | 1.6 | 1.6 | 0.00 | 0.00 | 0.00 | 87 | 1018.8 |
| 20260506043025 | 13 | 356 | 1.6 | 1.6 | 0.00 | 0.00 | 0.00 | 87 | 1018.6 |
| 20260506042523 | 13 | 323 | 3.2 | 3.2 | 0.00 | 0.00 | 0.00 | 87 | 1018.8 |
| 20260506042021 | 13 | 10 | 4.8 | 9.7 | 0.00 | 0.00 | 0.00 | 87 | 1018.5 |
| 20260506041520 | 13 | 264 | 1.6 | 1.6 | 0.00 | 0.00 | 0.00 | 86 | 1018.5 |
| 20260506041016 | 13 | 340 | 1.6 | 1.6 | 0.00 | 0.00 | 0.00 | 86 | 1018.3 |
| 20260506040514 | 13 | 318 | 1.6 | 1.6 | 0.00 | 0.00 | 0.00 | 86 | 1018.3 |
| 20260506040009 | 13 | 284 | 1.6 | 4.8 | 0.00 | 0.00 | 0.00 | 85 | 1018.4 |
| 20260506035507 | 13 | 283 | 3.2 | 4.8 | 0.00 | 0.00 | 0.00 | 84 | 1018.2 |
| 20260506035003 | 13 | 309 | 3.2 | 6.4 | 0.00 | 0.00 | 0.00 | 84 | 1018.4 |
| 20260506034501 | 13 | 343 | 1.6 | 3.2 | 0.00 | 0.00 | 0.00 | 84 | 1018.2 |
| 20260506033957 | 13 | 269 | 3.2 | 3.2 | 0.00 | 0.00 | 0.00 | 83 | 1018.0 |
| 20260506033455 | 13 | 302 | 3.2 | 4.8 | 0.00 | 0.00 | 0.00 | 83 | 1017.9 |
| 20260506032951 | 13 | 279 | 3.2 | 4.8 | 0.00 | 0.00 | 0.00 | 82 | 1017.9 |
| 20260506032449 | 13 | 310 | 6.4 | 6.4 | 0.00 | 0.00 | 0.00 | 82 | 1017.6 |
| 20260506031945 | 14 | 304 | 8.0 | 11.3 | 0.00 | 0.00 | 0.00 | 82 | 1017.7 |
| 20260506031443 | 14 | 283 | 3.2 | 6.4 | 0.00 | 0.00 | 0.00 | 81 | 1017.6 |
| 20260506030940 | 14 | 285 | 3.2 | 4.8 | 0.00 | 0.00 | 0.00 | 81 | 1017.4 |
| 20260506030438 | 14 | 320 | 3.2 | 4.8 | 0.00 | 0.00 | 0.00 | 82 | 1017.6 |
| 20260506025935 | 14 | 300 | 4.8 | 4.8 | 0.00 | 0.00 | 0.00 | 81 | 1017.6 |
| 20260506025432 | 14 | 267 | 1.6 | 3.2 | 0.00 | 0.00 | 0.00 | 81 | 1017.4 |
| 20260506024928 | 14 | 326 | 1.6 | 1.6 | 0.00 | 0.00 | 0.00 | 80 | 1017.2 |
| 20260506024425 | 14 | 284 | 9.7 | 12.9 | 0.00 | 0.00 | 0.00 | 80 | 1017.4 |
| 20260506023921 | 14 | 295 | 1.6 | 1.6 | 0.00 | 0.00 | 0.00 | 80 | 1017.4 |
| 20260506023418 | 15 | 279 | 1.6 | 3.2 | 0.00 | 0.00 | 0.00 | 80 | 1017.4 |
| 20260506022915 | 15 | 290 | 6.4 | 11.3 | 0.00 | 0.00 | 0.00 | 79 | 1017.2 |
| 20260506022413 | 15 | 301 | 8.0 | 11.3 | 0.00 | 0.00 | 0.00 | 79 | 1017.1 |
| 20260506021910 | 15 | 343 | 9.7 | 14.5 | 0.00 | 0.00 | 0.00 | 78 | 1017.1 |
| 20260506021407 | 15 | 7 | 1.6 | 3.2 | 0.00 | 0.00 | 0.00 | 79 | 1017.0 |
| 20260506020904 | 15 | 252 | 4.8 | 6.4 | 0.00 | 0.00 | 0.00 | 78 | 1017.1 |
| 20260506020402 | 15 | 281 | 9.7 | 14.5 | 0.00 | 0.00 | 0.00 | 78 | 1017.1 |
| 20260506015859 | 15 | 288 | 9.7 | 12.9 | 0.00 | 0.00 | 0.00 | 77 | 1017.0 |
| 20260506015356 | 15 | 248 | 9.7 | 12.9 | 0.00 | 0.00 | 0.00 | 77 | 1017.0 |
| 20260506014853 | 15 | 339 | 4.8 | 9.7 | 0.00 | 0.00 | 0.00 | 77 | 1016.7 |
| 20260506014350 | 15 | 315 | 6.4 | 6.4 | 0.00 | 0.00 | 0.00 | 76 | 1016.8 |
| 20260506013847 | 15 | 350 | 0.0 | 1.6 | 0.00 | 0.00 | 0.00 | 77 | 1016.7 |
| 20260506013344 | 15 | 262 | 8.0 | 11.3 | 0.00 | 0.00 | 0.00 | 77 | 1016.9 |
| 20260506012840 | 15 | 276 | 4.8 | 4.8 | 0.00 | 0.00 | 0.00 | 77 | 1016.8 |
| 20260506012338 | 15 | 250 | 12.9 | 17.7 | 0.00 | 0.00 | 0.00 | 77 | 1016.9 |
| 20260506011835 | 15 | 313 | 6.4 | 11.3 | 0.00 | 0.00 | 0.00 | 77 | 1017.0 |
| 20260506011331 | 15 | 288 | 6.4 | 9.7 | 0.00 | 0.00 | 0.00 | 77 | 1016.9 |
| 20260506010829 | 16 | 322 | 11.3 | 14.5 | 0.00 | 0.00 | 0.00 | 76 | 1016.9 |
| 20260506010327 | 16 | 287 | 6.4 | 6.4 | 0.00 | 0.00 | 0.00 | 76 | 1016.8 |
| 20260506005823 | 16 | 4 | 9.7 | 14.5 | 0.00 | 0.00 | 0.00 | 76 | 1016.8 |
| 20260506005320 | 16 | 288 | 8.0 | 14.5 | 0.00 | 0.00 | 0.00 | 76 | 1016.8 |
| 20260506004816 | 16 | 285 | 9.7 | 11.3 | 0.00 | 0.00 | 0.00 | 75 | 1016.7 |
| 20260506004314 | 16 | 229 | 4.8 | 4.8 | 0.00 | 0.00 | 0.00 | 75 | 1016.7 |
| 20260506003810 | 16 | 346 | 6.4 | 9.7 | 0.00 | 0.00 | 0.00 | 75 | 1016.7 |
| 20260506003306 | 16 | 252 | 11.3 | 22.5 | 0.00 | 0.00 | 0.00 | 74 | 1016.5 |
| 20260506002803 | 17 | 289 | 6.4 | 9.7 | 0.00 | 0.00 | 0.00 | 73 | 1016.6 |
| 20260506002259 | 17 | 277 | 8.0 | 11.3 | 0.00 | 0.00 | 0.00 | 73 | 1016.4 |
| 20260506001755 | 17 | 6 | 6.4 | 9.7 | 0.00 | 0.00 | 0.00 | 73 | 1016.5 |
| 20260506001252 | 17 | 15 | 6.4 | 9.7 | 0.00 | 0.00 | 0.00 | 73 | 1016.4 |
| 20260506000749 | 17 | 274 | 3.2 | 4.8 | 0.00 | 0.00 | 0.00 | 73 | 1016.4 |
| 20260506000247 | 17 | 264 | 11.3 | 14.5 | 0.00 | 0.00 | 0.00 | 71 | 1016.3 |
| 20260505235743 | 18 | 247 | 9.7 | 14.5 | 0.00 | 0.00 | 0.00 | 71 | 1016.4 |
| 20260505235241 | 17 | 357 | 6.4 | 11.3 | 0.00 | 0.00 | 0.00 | 71 | 1016.5 |
| 20260505234738 | 18 | 277 | 14.5 | 16.1 | 0.00 | 0.00 | 0.00 | 70 | 1016.4 |
| 20260505234235 | 17 | 317 | 6.4 | 9.7 | 0.00 | 0.00 | 0.00 | 71 | 1016.5 |
| 20260505233732 | 18 | 289 | 9.7 | 16.1 | 0.00 | 0.00 | 0.00 | 71 | 1016.3 |
| 20260505233230 | 18 | 272 | 9.7 | 14.5 | 0.00 | 0.00 | 0.00 | 69 | 1016.5 |
| 20260505232727 | 18 | 226 | 9.7 | 12.9 | 0.00 | 0.00 | 0.00 | 69 | 1016.3 |
| 20260505232224 | 18 | 291 | 8.0 | 12.9 | 0.00 | 0.00 | 0.00 | 69 | 1016.4 |
| 20260505231721 | 19 | 16 | 1.6 | 1.6 | 0.00 | 0.00 | 0.00 | 68 | 1016.2 |
| 20260505231220 | 20 | 296 | 3.2 | 4.8 | 0.00 | 0.00 | 0.00 | 66 | 1016.2 |
| 20260505230717 | 19 | 296 | 8.0 | 11.3 | 0.00 | 0.00 | 0.00 | 68 | 1016.2 |
| 20260505230214 | 19 | 286 | 11.3 | 14.5 | 0.00 | 0.00 | 0.00 | 66 | 1016.1 |
| 20260505225710 | 19 | 304 | 4.8 | 9.7 | 0.00 | 0.00 | 0.00 | 68 | 1016.3 |
| 20260505225207 | 18 | 227 | 6.4 | 9.7 | 0.00 | 0.00 | 0.00 | 68 | 1016.2 |
| 20260505224703 | 18 | 286 | 8.0 | 11.3 | 0.00 | 0.00 | 0.00 | 68 | 1016.3 |
| 20260505224201 | 18 | 213 | 3.2 | 9.7 | 0.00 | 0.00 | 0.00 | 69 | 1016.2 |
| 20260505223658 | 18 | 258 | 4.8 | 6.4 | 0.00 | 0.00 | 0.00 | 69 | 1016.2 |
| 20260505223154 | 18 | 284 | 9.7 | 14.5 | 0.00 | 0.00 | 0.00 | 68 | 1016.3 |
| 20260505222650 | 18 | 284 | 3.2 | 4.8 | 0.00 | 0.00 | 0.00 | 68 | 1016.3 |
| 20260505222147 | 19 | 8 | 4.8 | 9.7 | 0.00 | 0.00 | 0.00 | 69 | 1016.3 |
| 20260505221644 | 19 | 21 | 0.0 | 0.0 | 0.00 | 0.00 | 0.00 | 68 | 1016.4 |
| 20260505221140 | 19 | 250 | 9.7 | 12.9 | 0.00 | 0.00 | 0.00 | 67 | 1016.4 |
| 20260505220638 | 20 | 280 | 8.0 | 11.3 | 0.00 | 0.00 | 0.00 | 66 | 1016.3 |
| 20260505220135 | 19 | 356 | 6.4 | 9.7 | 0.00 | 0.00 | 0.00 | 67 | 1016.5 |
| 20260505215632 | 18 | 250 | 4.8 | 6.4 | 0.00 | 0.00 | 0.00 | 68 | 1016.3 |
| 20260505215131 | 18 | 246 | 3.2 | 4.8 | 0.00 | 0.00 | 0.00 | 69 | 1016.4 |
| 20260505214629 | 19 | 282 | 4.8 | 4.8 | 0.00 | 0.00 | 0.00 | 67 | 1016.4 |
| 20260505214125 | 18 | 249 | 4.8 | 6.4 | 0.00 | 0.00 | 0.00 | 68 | 1016.4 |
| 20260505213623 | 20 | 318 | 4.8 | 4.8 | 0.00 | 0.00 | 0.00 | 67 | 1016.6 |
| 20260505213119 | 18 | 354 | 0.0 | 3.2 | 0.00 | 0.00 | 0.00 | 68 | 1016.6 |
| 20260505212615 | 18 | 282 | 6.4 | 12.9 | 0.00 | 0.00 | 0.00 | 68 | 1016.5 |
| 20260505212113 | 18 | 310 | 1.6 | 1.6 | 0.00 | 0.00 | 0.00 | 71 | 1016.7 |
| 20260505211610 | 18 | 268 | 4.8 | 4.8 | 0.00 | 0.00 | 0.00 | 70 | 1016.6 |
| 20260505211107 | 18 | 9 | 1.6 | 3.2 | 0.00 | 0.00 | 0.00 | 72 | 1016.6 |
| 20260505210603 | 18 | 296 | 4.8 | 9.7 | 0.00 | 0.00 | 0.00 | 71 | 1016.6 |
| 20260505210100 | 18 | 264 | 3.2 | 4.8 | 0.00 | 0.00 | 0.00 | 71 | 1016.6 |
| 20260505205558 | 18 | 353 | 1.6 | 1.6 | 0.00 | 0.00 | 0.00 | 70 | 1016.6 |
| 20260505205055 | 18 | 282 | 1.6 | 1.6 | 0.00 | 0.00 | 0.00 | 71 | 1016.6 |
| 20260505204552 | 18 | 279 | 6.4 | 6.4 | 0.00 | 0.00 | 0.00 | 70 | 1016.7 |
| 20260505204050 | 18 | 274 | 4.8 | 6.4 | 0.00 | 0.00 | 0.00 | 70 | 1016.5 |
| 20260505203546 | 18 | 255 | 3.2 | 4.8 | 0.00 | 0.00 | 0.00 | 70 | 1016.6 |
| 20260505203044 | 18 | 267 | 6.4 | 9.7 | 0.00 | 0.00 | 0.00 | 71 | 1016.7 |
| 20260505202539 | 18 | 272 | 4.8 | 11.3 | 0.00 | 0.00 | 0.00 | 70 | 1016.5 |
| 20260505202035 | 18 | 349 | 3.2 | 6.4 | 0.00 | 0.00 | 0.00 | 71 | 1016.6 |
| 20260505201533 | 18 | 278 | 8.0 | 9.7 | 0.00 | 0.00 | 0.00 | 69 | 1016.6 |
| 20260505201030 | 18 | 296 | 8.0 | 11.3 | 0.00 | 0.00 | 0.00 | 70 | 1016.5 |
| 20260505200528 | 18 | 357 | 3.2 | 4.8 | 0.00 | 0.00 | 0.00 | 71 | 1016.7 |
| 20260505200025 | 18 | 300 | 6.4 | 9.7 | 0.00 | 0.00 | 0.00 | 70 | 1016.8 |
| 20260505195520 | 19 | 273 | 8.0 | 11.3 | 0.00 | 0.00 | 0.00 | 68 | 1016.8 |
| 20260505195018 | 18 | 291 | 3.2 | 4.8 | 0.00 | 0.00 | 0.00 | 70 | 1017.1 |
| 20260505194515 | 18 | 222 | 3.2 | 3.2 | 0.00 | 0.00 | 0.00 | 72 | 1016.9 |
| 20260505194010 | 17 | 242 | 9.7 | 14.5 | 0.00 | 0.00 | 0.00 | 72 | 1016.8 |
| 20260505193508 | 17 | 309 | 4.8 | 4.8 | 0.00 | 0.00 | 0.00 | 75 | 1017.0 |
| 20260505193005 | 17 | 265 | 6.4 | 12.9 | 0.00 | 0.00 | 0.00 | 75 | 1016.9 |
| 20260505192504 | 17 | 303 | 9.7 | 14.5 | 0.00 | 0.00 | 0.00 | 75 | 1017.0 |
| 20260505192001 | 17 | 275 | 8.0 | 9.7 | 0.00 | 0.00 | 0.00 | 75 | 1016.8 |
| 20260505191459 | 16 | 262 | 6.4 | 9.7 | 0.00 | 0.00 | 0.00 | 76 | 1017.1 |
| 20260505190956 | 16 | 267 | 9.7 | 12.9 | 0.00 | 0.00 | 0.00 | 75 | 1017.0 |
| 20260505190451 | 16 | 231 | 4.8 | 6.4 | 0.00 | 0.00 | 0.00 | 76 | 1016.9 |
| 20260505185947 | 17 | 274 | 4.8 | 6.4 | 0.00 | 0.00 | 0.00 | 75 | 1016.7 |
| 20260505185444 | 17 | 274 | 9.7 | 12.9 | 0.00 | 0.00 | 0.00 | 75 | 1016.9 |
| 20260505184940 | 18 | 244 | 9.7 | 12.9 | 0.00 | 0.00 | 0.00 | 73 | 1016.7 |
| 20260505184437 | 17 | 238 | 3.2 | 4.8 | 0.00 | 0.00 | 0.00 | 73 | 1016.6 |
| 20260505183933 | 17 | 10 | 3.2 | 4.8 | 0.00 | 0.00 | 0.00 | 74 | 1016.9 |
| 20260505183431 | 17 | 311 | 3.2 | 3.2 | 0.00 | 0.00 | 0.00 | 75 | 1016.7 |
| 20260505182927 | 16 | 7 | 6.4 | 11.3 | 0.00 | 0.00 | 0.00 | 76 | 1016.8 |
| 20260505182425 | 16 | 263 | 6.4 | 9.7 | 0.00 | 0.00 | 0.00 | 76 | 1016.8 |
| 20260505181920 | 16 | 294 | 1.6 | 3.2 | 0.00 | 0.00 | 0.00 | 78 | 1016.8 |
| 20260505181418 | 16 | 356 | 3.2 | 3.2 | 0.00 | 0.00 | 0.00 | 79 | 1016.8 |
| 20260505180915 | 16 | 268 | 1.6 | 3.2 | 0.00 | 0.00 | 0.00 | 78 | 1016.7 |
| 20260505180411 | 16 | 270 | 1.6 | 1.6 | 0.00 | 0.00 | 0.00 | 78 | 1016.4 |
| 20260505175908 | 16 | 342 | 1.6 | 1.6 | 0.00 | 0.00 | 0.00 | 77 | 1016.6 |
| 20260505175404 | 16 | 246 | 1.6 | 3.2 | 0.00 | 0.00 | 0.00 | 77 | 1016.7 |
| 20260505174901 | 16 | 283 | 4.8 | 4.8 | 0.00 | 0.00 | 0.00 | 77 | 1016.6 |
| 20260505174358 | 15 | 273 | 9.7 | 12.9 | 0.00 | 0.00 | 0.00 | 78 | 1016.5 |
| 20260505173854 | 15 | 229 | 6.4 | 11.3 | 0.00 | 0.00 | 0.00 | 79 | 1016.4 |
| 20260505173351 | 15 | 282 | 8.0 | 9.7 | 0.00 | 0.00 | 0.00 | 79 | 1016.5 |
| 20260505172848 | 15 | 206 | 6.4 | 9.7 | 0.00 | 0.00 | 0.00 | 80 | 1016.4 |
| 20260505172346 | 15 | 263 | 1.6 | 3.2 | 0.00 | 0.00 | 0.00 | 82 | 1016.4 |
| 20260505171845 | 15 | 287 | 4.8 | 4.8 | 0.00 | 0.00 | 0.00 | 83 | 1016.4 |
| 20260505171342 | 15 | 257 | 3.2 | 4.8 | 0.00 | 0.00 | 0.00 | 83 | 1016.2 |
| 20260505170839 | 15 | 310 | 8.0 | 11.3 | 0.00 | 0.00 | 0.00 | 84 | 1016.3 |